METEOR 3-1

导读

METEOR 3-1是苏联解体后独联体(CIS)发射的第三代“流星”系列首颗极轨气象卫星,于1985年10月24日入轨运行。作为苏联第三代气象卫星的开篇之作,它运行于近地轨道,配备多光谱与热红外探测设备,可精准监测云层、海面温度与大气参数,为全球天气预报、气候研究及灾害预警提供关键数据支撑,推动了国际气象领域的数据共享与科研合作。

Basic Information
目录编号:
16191
目录名称:
METEOR 3-1
国际标识:
1985-100A
轨道中心:
EARTH
卫星名称:
METEOR 3-1
卫星全名:
--
卫星状态:
在轨 (已飞行14842 天)
发射日期:
1985-10-24 UTC
国别 :
俄罗斯(独联体) (CIS)
星等 :
--
Orbit Information
数据来源 国际轨道数据 AOE轨道数据
星历时间 2026-06-13T05:10:16+0800
4小时前
查看轨道信息
2026-06-13T00:00:00+0800
9小时前
查看轨道信息
半长轴 7573.117km 7573.101km
偏心率 0.0020152 0.0020617
轨道倾角 82.549° 82.548°
近地点辐角 11.482° 12.693°
升交点赤经 39.002° 39.154°
平近点角 0.678° 58.199°
近地点 1179.718km 1179.35km
远地点 1210.242km 1210.578km
周期 109.313分钟 109.313分钟
每日圈数 13.173186 13.173228
Detailed Information
使用方式:
暂无
2D Orbit Map
3D Orbit Map
Orbit Altitude Analysis Chart
Orbit Inclination Analysis Chart
Orbit Comprehensive Analysis Chart
View Comprehensive Chart